TimeMDT,TemperatureF,Dew PointF,Humidity,Sea Level PressureIn,VisibilityMPH,Wind Direction,Wind SpeedMPH,Gust SpeedMPH,PrecipitationIn,Events,Conditions,WindDirDegrees,DateUTC
12:53 AM,75.0,44.1,33,29.80,10.0,SW,6.9,-,N/A,,Clear,230,2013-07-20 06:53:00
1:53 AM,70.0,45.0,41,29.81,10.0,SSW,3.5,-,N/A,,Clear,200,2013-07-20 07:53:00
2:53 AM,70.0,45.0,41,29.82,10.0,SW,5.8,-,N/A,,Clear,220,2013-07-20 08:53:00
3:53 AM,66.9,43.0,42,29.83,10.0,SW,4.6,-,N/A,,Clear,220,2013-07-20 09:53:00
4:53 AM,68.0,42.1,39,29.83,10.0,Calm,Calm,-,N/A,,Clear,0,2013-07-20 10:53:00
5:53 AM,66.9,41.0,39,29.83,10.0,Calm,Calm,-,N/A,,Clear,0,2013-07-20 11:53:00
6:53 AM,66.0,41.0,40,29.84,10.0,Calm,Calm,-,N/A,,Clear,0,2013-07-20 12:53:00
7:53 AM,69.1,41.0,36,29.85,10.0,SSW,5.8,-,N/A,,Clear,210,2013-07-20 13:53:00
8:53 AM,72.0,45.0,38,29.85,10.0,West,4.6,-,N/A,,Clear,260,2013-07-20 14:53:00
9:53 AM,77.0,44.1,31,29.86,10.0,WNW,4.6,-,N/A,,Clear,300,2013-07-20 15:53:00
10:53 AM,82.0,42.1,24,29.85,10.0,NNW,9.2,-,N/A,,Clear,330,2013-07-20 16:53:00
11:53 AM,86.0,42.1,21,29.84,10.0,WNW,9.2,-,N/A,,Clear,300,2013-07-20 17:53:00
12:53 PM,91.9,37.0,15,29.82,10.0,WNW,10.4,-,N/A,,Clear,290,2013-07-20 18:53:00
1:53 PM,96.1,36.0,12,29.80,10.0,WNW,10.4,20.7,N/A,,Clear,300,2013-07-20 19:53:00
2:53 PM,99.0,30.0,9,29.78,10.0,NW,11.5,17.3,N/A,,Clear,310,2013-07-20 20:53:00
3:53 PM,98.1,28.0,8,29.76,10.0,WNW,12.7,20.7,N/A,,Clear,290,2013-07-20 21:53:00
4:53 PM,100.9,23.0,6,29.73,10.0,WNW,15.0,-,N/A,,Clear,300,2013-07-20 22:53:00
5:53 PM,100.0,23.0,6,29.72,10.0,NNW,13.8,20.7,N/A,,Clear,330,2013-07-20 23:53:00
6:53 PM,99.0,19.9,6,29.70,10.0,NW,11.5,-,N/A,,Clear,320,2013-07-21 00:53:00
7:53 PM,98.1,21.0,6,29.69,10.0,NW,9.2,-,N/A,,Clear,320,2013-07-21 01:53:00
8:53 PM,93.9,27.0,9,29.69,10.0,NNW,8.1,-,N/A,,Clear,330,2013-07-21 02:53:00
9:53 PM,88.0,27.0,11,29.70,10.0,NNW,3.5,-,N/A,,Clear,330,2013-07-21 03:53:00
10:53 PM,80.1,30.9,17,29.72,10.0,NW,5.8,-,N/A,,Clear,310,2013-07-21 04:53:00
11:53 PM,78.1,35.1,21,29.73,10.0,WNW,4.6,-,N/A,,Clear,290,2013-07-21 05:53:00